GW5385 Weather Reports


time (UTC)temp
C
wind
direction
speed
KPH
gust
KPH
rain 1hr
cm
rain 24hr
cm
rain mn
cm
humidity
%
barometer
mb
20260906053016 13 335 9.7 17.7 0.03 0.23 0.23 79 1022.5
20260906051515 13 1 14.5 25.7 0.03 0.23 0.23 79 1022.5
20260906050015 13 4 20.9 35.4 0.03 0.23 0.23 79 1022.2
20260906044514 13 12 12.9 25.7 0.00 0.20 0.20 78 1023.3
20260906043011 13 18 22.5 30.6 0.03 0.20 0.20 79 1021.9
20260906041510 13 7 19.3 29.0 0.05 0.20 0.20 80 1021.7
20260906040012 13 20 19.3 29.0 0.05 0.20 0.20 79 1021.7
20260906034511 14 24 8.0 14.5 0.05 0.20 0.20 78 1022.4
20260906033014 15 344 8.0 12.9 0.00 0.15 0.15 68 1022.5
20260906031502 15 18 6.4 29.0 0.00 0.15 0.15 67 1022.6
20260906030002 15 300 22.5 33.8 0.00 0.15 0.15 67 1021.3
20260906024502 15 19 19.3 30.6 0.00 0.15 0.15 67 1020.7
20260906023102 15 18 20.9 29.0 0.00 0.15 0.15 66 1020.6
20260906021559 16 27 16.1 22.5 0.00 0.15 0.15 64 1020.7
20260906020055 16 34 12.9 20.9 0.00 0.15 0.15 61 1020.6
20260906014607 17 41 8.0 14.5 0.00 0.15 0.15 59 1020.6
20260906013055 17 24 9.7 19.3 0.00 0.15 0.15 58 1020.6
20260906011552 18 30 9.7 20.9 0.00 0.15 0.15 56 1020.6
20260906010049 18 359 16.1 22.5 0.00 0.15 0.15 55 1020.5
20260906004549 18 26 11.3 22.5 0.00 0.15 0.15 54 1020.6
20260906003105 19 33 12.9 20.9 0.00 0.15 0.15 54 1020.7
20260906001549 20 15 14.5 22.5 0.00 0.15 0.15 53 1020.7
20260906000045 20 37 17.7 22.5 0.00 0.15 0.15 53 1020.8
20260905234544 20 41 12.9 20.9 0.00 0.15 0.15 53 1021.1
20260905233043 20 67 11.3 19.3 0.00 0.15 0.15 50 1020.9
20260905231543 21 51 11.3 17.7 0.00 0.15 0.15 49 1020.9
20260905230039 22 65 6.4 12.9 0.00 0.15 0.15 46 1020.7
20260905224539 21 6 11.3 19.3 0.00 0.15 0.15 47 1020.8
20260905223038 22 63 4.8 22.5 0.00 0.15 0.15 47 1020.9
20260905221537 22 37 4.8 19.3 0.00 0.15 0.15 45 1020.9
20260905220006 22 282 3.2 11.3 0.00 0.15 0.15 40 1021.0
20260905214506 22 252 3.2 8.0 0.00 0.15 0.15 39 1021.0
20260905213001 22 246 4.8 9.7 0.00 0.15 0.15 39 1021.2
20260905211605 22 344 6.4 11.3 0.00 0.15 0.15 40 1021.2
20260905210100 21 107 0.0 11.3 0.00 0.15 0.15 41 1021.3
20260905204603 21 337 6.4 12.9 0.00 0.15 0.15 41 1021.3
20260905203058 21 231 3.2 9.7 0.00 0.15 0.15 41 1021.3
20260905201553 21 300 4.8 9.7 0.00 0.15 0.15 42 1021.4
20260905200056 21 328 4.8 19.3 0.00 0.15 0.15 42 1021.5
20260905194550 20 41 3.2 12.9 0.00 0.15 0.15 43 1021.6
20260905193147 20 356 6.4 14.5 0.00 0.15 0.15 46 1021.8
20260905191552 20 330 6.4 14.5 0.00 0.15 0.15 44 1021.8
20260905190044 20 339 8.0 12.9 0.00 0.15 0.15 47 1022.0
20260905184540 20 285 4.8 12.9 0.00 0.15 0.15 48 1022.1
20260905183037 19 335 1.6 12.9 0.00 0.15 0.15 50 1022.4
20260905181536 19 340 1.6 9.7 0.00 0.15 0.15 52 1022.3
20260905180030 18 345 0.0 8.0 0.00 0.15 0.15 56 1022.4
20260905174527 18 331 1.6 9.7 0.00 0.15 0.15 56 1022.5
20260905173023 17 328 1.6 8.0 0.00 0.15 0.15 59 1022.4
20260905171525 17 326 3.2 9.7 0.00 0.15 0.15 60 1022.3
20260905170020 17 316 1.6 8.0 0.00 0.15 0.15 63 1022.4
20260905164518 16 23 0.0 6.4 0.00 0.15 0.15 71 1022.5
20260905163114 15 326 3.2 6.4 0.00 0.15 0.15 72 1022.4
20260905161508 14 318 0.0 1.6 0.00 0.15 0.15 81 1022.4
20260905160020 14 282 0.0 3.2 0.00 0.15 0.15 81 1022.2
20260905154505 13 335 0.0 1.6 0.00 0.15 0.15 82 1022.5
20260905153001 13 302 0.0 1.6 0.03 0.15 0.15 84 1022.0
20260905151559 13 302 0.0 1.6 0.03 0.15 0.15 85 1022.1
20260905150100 12 333 0.0 6.4 0.03 0.15 0.15 87 1022.0
20260905144557 12 347 1.6 8.0 0.05 0.15 0.15 88 1022.0
20260905143057 11 335 1.6 8.0 0.10 0.13 0.13 87 1021.7
20260905141553 11 335 4.8 11.3 0.13 0.13 0.13 88 1021.1
20260905140052 11 323 0.0 4.8 0.13 0.13 0.13 87 1022.1
20260905134557 10 337 0.0 3.2 0.10 0.10 0.10 85 1022.4
20260905133049 10 276 1.6 8.0 0.00 0.00 0.00 83 1022.3
20260905131550 11 256 0.0 4.8 0.00 0.00 0.00 81 1021.9
20260905130042 11 262 0.0 0.0 0.00 0.00 0.00 79 1021.1
20260905124542 10 240 0.0 1.6 0.00 0.00 0.00 78 1021.3
20260905123039 11 232 0.0 1.6 0.00 0.00 0.00 76 1021.0
20260905121535 11 277 0.0 6.4 0.00 0.00 0.00 73 1020.8
20260905120034 11 231 1.6 12.9 0.00 0.00 0.00 71 1021.1
20260905114540 11 268 0.0 1.6 0.00 0.00 0.00 72 1021.0
20260905113036 11 31 0.0 1.6 0.00 0.00 0.00 72 1020.5
20260905111644 11 276 0.0 3.2 0.00 0.00 0.00 72 1020.3
20260905110056 11 252 1.6 6.4 0.00 0.00 0.00 72 1020.2
20260905104553 11 250 0.0 4.8 0.00 0.00 0.00 73 1019.9
20260905103055 10 342 0.0 3.2 0.00 0.00 0.00 74 1019.8
20260905101552 10 359 0.0 3.2 0.00 0.00 0.00 75 1020.1
20260905094547 10 1 0.0 1.6 0.00 0.00 0.00 72 1019.5
20260905093046 10 1 0.0 1.6 0.00 0.00 0.00 72 1019.8
20260905091543 10 1 0.0 1.6 0.00 0.00 0.00 71 1019.7
20260905090041 10 247 0.0 1.6 0.00 0.00 0.00 70 1019.0
20260905084506 11 247 0.0 1.6 0.00 0.00 0.00 67 1018.9
20260905083005 11 240 0.0 3.2 0.00 0.00 0.00 66 1018.5
20260905081502 12 45 6.4 8.0 0.00 0.00 0.00 65 1018.2
20260905074559 12 42 6.4 12.9 0.00 0.00 0.00 64 1019.5
20260905073058 12 300 0.0 6.4 0.00 0.00 0.00 66 1019.4
20260905071556 11 240 0.0 3.2 0.00 0.00 0.00 67 1019.4
20260905070050 11 317 0.0 1.6 0.00 0.00 0.00 64 1018.9
20260905064549 12 354 1.6 4.8 0.00 0.00 0.00 62 1018.9
20260905063058 12 304 4.8 11.3 0.00 0.00 0.00 62 1018.9
20260905061557 13 302 0.0 3.2 0.00 0.00 0.00 62 1019.2
20260905060039 13 291 0.0 1.6 0.00 0.00 0.00 57 1018.9
20260905054539 15 304 1.6 9.7 0.00 0.00 0.00 55 1018.8